EZY13DB LEMH-EGGD

Flight info

Callsign EZY13DB
Flight time 2h 15m
Altitude 36000
Route MEROS N853 LUMAS DCT SOFFY DCT MRM DCT MTL DCT ETREK DCT MADOT DCT MOPEM DCT CACHI DCT AVLON DCT OKRIX DCT BRY DCT CLM DCT KOPOR DCT KESAX DCT KUNAV T421 ICTAM
Aircraft A320/M-SDE3FGHIRWY/LB1

Departure

Time 2026-04-23 10:51
Airport Menorca Airport (LEMH)

Arrival

Time 2026-04-23 13:06
Airport Bristol Airport (EGGD)
Time Latitude Longitude Altitude Speed Heading
2026-04-23 10:43 39.86530 4.22423 286 ft 0 kts 99°
2026-04-23 10:44 39.86533 4.22395 287 ft 4 kts 99°
2026-04-23 10:44 39.86538 4.22361 291 ft 4 kts 105°
2026-04-23 10:44 39.86547 4.22336 294 ft 4 kts 172°
2026-04-23 10:45 39.86567 4.22338 297 ft 4 kts 189°
2026-04-23 10:45 39.86573 4.22340 289 ft 0 kts 189°
2026-04-23 10:47 39.86551 4.22335 288 ft 6 kts 189°
2026-04-23 10:47 39.86534 4.22326 288 ft 3 kts 216°
2026-04-23 10:47 39.86530 4.22291 293 ft 7 kts 288°
2026-04-23 10:48 39.86544 4.22219 294 ft 9 kts 278°
2026-04-23 10:48 39.86527 4.22159 295 ft 9 kts 204°
2026-04-23 10:48 39.86393 4.22129 294 ft 30 kts 190°
2026-04-23 10:48 39.86147 4.22081 298 ft 37 kts 189°
2026-04-23 10:49 39.85889 4.22029 299 ft 38 kts 189°
2026-04-23 10:49 39.85623 4.21973 288 ft 40 kts 188°
2026-04-23 10:49 39.85343 4.21916 282 ft 42 kts 188°
2026-04-23 10:49 39.85151 4.21874 281 ft 14 kts 195°
2026-04-23 10:50 39.85132 4.21769 283 ft 15 kts 279°
2026-04-23 10:50 39.85158 4.21646 286 ft 8 kts 331°
2026-04-23 10:50 39.85219 4.21651 286 ft 11 kts
2026-04-23 10:50 39.85417 4.21693 287 ft 61 kts
2026-04-23 10:51 39.86049 4.21822 303 ft 121 kts
2026-04-23 10:51 39.87009 4.22033 560 ft 145 kts 13°
2026-04-23 10:51 39.88008 4.22259 1193 ft 149 kts 16°
2026-04-23 10:51 39.89070 4.22485 1673 ft 166 kts 15°
2026-04-23 10:52 39.90282 4.22749 2013 ft 188 kts 14°
2026-04-23 10:52 39.91652 4.23045 2342 ft 211 kts 14°
2026-04-23 10:52 39.93190 4.23375 2694 ft 236 kts 12°
2026-04-23 10:52 39.94875 4.23731 3291 ft 250 kts 11°
2026-04-23 10:53 39.96623 4.24093 4065 ft 258 kts 10°
2026-04-23 10:53 39.98406 4.24462 4955 ft 261 kts
2026-04-23 10:53 40.00214 4.24836 5815 ft 265 kts
2026-04-23 10:53 40.02045 4.25222 6678 ft 269 kts
2026-04-23 10:54 40.03893 4.25643 7508 ft 271 kts
2026-04-23 10:54 40.05749 4.26086 8354 ft 273 kts
2026-04-23 10:54 40.07622 4.26540 9191 ft 275 kts
2026-04-23 10:54 40.09512 4.26997 10037 ft 277 kts
2026-04-23 10:55 40.11432 4.27456 10601 ft 289 kts
2026-04-23 10:55 40.13489 4.27936 10835 ft 311 kts
2026-04-23 10:55 40.15666 4.28445 11335 ft 322 kts
2026-04-23 10:55 40.17888 4.28973 12019 ft 327 kts
2026-04-23 10:56 40.20141 4.29511 12729 ft 331 kts
2026-04-23 10:56 40.22422 4.30056 13424 ft 335 kts
2026-04-23 10:56 40.24732 4.30606 14099 ft 339 kts
2026-04-23 10:56 40.27065 4.31164 14709 ft 343 kts
2026-04-23 10:57 40.29425 4.31726 15339 ft 346 kts
2026-04-23 10:57 40.31801 4.32291 15966 ft 349 kts
2026-04-23 10:57 40.34201 4.32863 16583 ft 352 kts
2026-04-23 10:57 40.36618 4.33442 17189 ft 355 kts
2026-04-23 10:58 40.39059 4.34025 17800 ft 358 kts
2026-04-23 10:58 40.41518 4.34610 18458 ft 360 kts
2026-04-23 10:58 40.43988 4.35201 19011 ft 362 kts
2026-04-23 10:58 40.46472 4.35801 19562 ft 364 kts
2026-04-23 10:59 40.48969 4.36404 20119 ft 366 kts
2026-04-23 10:59 40.51480 4.37009 20675 ft 368 kts
2026-04-23 10:59 40.54003 4.37613 21230 ft 370 kts
2026-04-23 10:59 40.56543 4.38217 21773 ft 372 kts
2026-04-23 11:00 40.59097 4.38824 22324 ft 374 kts
2026-04-23 11:00 40.61670 4.39435 22862 ft 376 kts
2026-04-23 11:00 40.64253 4.40052 23383 ft 379 kts
2026-04-23 11:00 40.66855 4.40676 23878 ft 381 kts
2026-04-23 11:01 40.69472 4.41307 24288 ft 383 kts
2026-04-23 11:01 40.72104 4.41943 24690 ft 386 kts
2026-04-23 11:01 40.74748 4.42578 25089 ft 388 kts
2026-04-23 11:01 40.77411 4.43217 25479 ft 389 kts
2026-04-23 11:02 40.80081 4.43858 25864 ft 391 kts
2026-04-23 11:02 40.82768 4.44502 26250 ft 393 kts
2026-04-23 11:02 40.85468 4.45153 26612 ft 395 kts
2026-04-23 11:02 40.88178 4.45810 26975 ft 397 kts
2026-04-23 11:03 40.90907 4.46473 27335 ft 399 kts
2026-04-23 11:03 40.93643 4.47137 27694 ft 401 kts
2026-04-23 11:03 40.96398 4.47803 28043 ft 403 kts
2026-04-23 11:03 40.99124 4.48461 28378 ft 405 kts
2026-04-23 11:04 41.01903 4.49133 28724 ft 407 kts
2026-04-23 11:04 41.04696 4.49812 29051 ft 409 kts
2026-04-23 11:04 41.07501 4.50497 29359 ft 411 kts
2026-04-23 11:04 41.10320 4.51184 29669 ft 413 kts
2026-04-23 11:05 41.13153 4.51875 29967 ft 415 kts
2026-04-23 11:05 41.15994 4.52569 30254 ft 417 kts
2026-04-23 11:05 41.18851 4.53266 30503 ft 418 kts
2026-04-23 11:05 41.21719 4.53962 30736 ft 420 kts
2026-04-23 11:06 41.27484 4.55361 31203 ft 423 kts
2026-04-23 11:06 41.30385 4.56071 31458 ft 423 kts
2026-04-23 11:06 41.33279 4.56782 31765 ft 423 kts
2026-04-23 11:07 41.36169 4.57494 32095 ft 422 kts
2026-04-23 11:07 41.39055 4.58209 32387 ft 422 kts
2026-04-23 11:07 41.41935 4.58924 32684 ft 421 kts
2026-04-23 11:07 41.44815 4.59634 32994 ft 420 kts
2026-04-23 11:08 41.47690 4.60340 33316 ft 420 kts
2026-04-23 11:08 41.50558 4.61044 33646 ft 418 kts
2026-04-23 11:08 41.53417 4.61747 33972 ft 417 kts
2026-04-23 11:08 41.56269 4.62450 34279 ft 416 kts
2026-04-23 11:09 41.59112 4.63155 34541 ft 416 kts
2026-04-23 11:09 41.61916 4.63847 34789 ft 415 kts
2026-04-23 11:09 41.64754 4.64547 35032 ft 414 kts
2026-04-23 11:09 41.67589 4.65248 35257 ft 414 kts
2026-04-23 11:10 41.70419 4.65948 35529 ft 413 kts
2026-04-23 11:10 41.73271 4.66680 35783 ft 413 kts
2026-04-23 11:10 41.76011 4.67709 35999 ft 415 kts 11°
2026-04-23 11:10 41.78779 4.68793 36183 ft 415 kts 11°
2026-04-23 11:11 41.81541 4.69874 36236 ft 412 kts 11°
2026-04-23 11:11 41.87023 4.72024 36236 ft 410 kts 11°
2026-04-23 11:12 41.92484 4.74175 36241 ft 408 kts 11°
2026-04-23 11:12 41.97047 4.75970 36242 ft 408 kts 11°
2026-04-23 11:13 42.02490 4.78114 36245 ft 408 kts 11°
2026-04-23 11:13 42.07937 4.80259 36246 ft 408 kts 11°
2026-04-23 11:14 42.13384 4.82414 36271 ft 408 kts 11°
2026-04-23 11:14 42.18822 4.84571 36270 ft 407 kts 11°
2026-04-23 11:15 42.24222 4.86721 36269 ft 407 kts 11°
2026-04-23 11:15 42.29648 4.88882 36270 ft 407 kts 11°
2026-04-23 11:16 42.35077 4.91046 36284 ft 406 kts 11°
2026-04-23 11:16 42.40492 4.93209 36279 ft 406 kts 11°
2026-04-23 11:17 42.45903 4.95366 36299 ft 405 kts 10°
2026-04-23 11:17 42.51304 4.97531 36309 ft 404 kts 10°
2026-04-23 11:18 42.56688 4.99696 36299 ft 403 kts 10°
2026-04-23 11:18 42.62062 5.01855 36294 ft 402 kts 10°
2026-04-23 11:19 42.67425 5.04011 36285 ft 402 kts 10°
2026-04-23 11:19 42.72780 5.06177 36283 ft 402 kts 10°
2026-04-23 11:20 42.78102 5.08324 36288 ft 401 kts 10°
2026-04-23 11:20 42.83456 5.10495 36287 ft 402 kts 10°
2026-04-23 11:21 42.88813 5.12667 36286 ft 402 kts 10°
2026-04-23 11:21 42.94170 5.14842 36292 ft 402 kts 10°
2026-04-23 11:22 42.99523 5.17020 36296 ft 401 kts 10°
2026-04-23 11:22 43.04873 5.19208 36294 ft 401 kts 10°
2026-04-23 11:23 43.10224 5.21390 36288 ft 401 kts 10°
2026-04-23 11:23 43.15572 5.23567 36289 ft 401 kts 10°
2026-04-23 11:24 43.20912 5.25744 36273 ft 400 kts 10°
2026-04-23 11:24 43.26250 5.27926 36263 ft 400 kts 10°
2026-04-23 11:25 43.31582 5.30108 36284 ft 400 kts 10°
2026-04-23 11:25 43.36963 5.31630 36278 ft 389 kts 356°
2026-04-23 11:26 43.42223 5.30620 36270 ft 379 kts 339°
2026-04-23 11:26 43.47230 5.28319 36260 ft 379 kts 339°
2026-04-23 11:27 43.52242 5.26038 36268 ft 379 kts 339°
2026-04-23 11:27 43.57255 5.23754 36260 ft 380 kts 339°
2026-04-23 11:28 43.62274 5.21453 36254 ft 380 kts 339°
2026-04-23 11:28 43.67263 5.19167 36254 ft 380 kts 339°
2026-04-23 11:29 43.72276 5.16862 36268 ft 380 kts 339°
2026-04-23 11:29 43.77300 5.14547 36251 ft 381 kts 339°
2026-04-23 11:30 43.82341 5.12219 36262 ft 382 kts 339°
2026-04-23 11:30 43.87386 5.09889 36266 ft 382 kts 339°
2026-04-23 11:31 43.92435 5.07551 36275 ft 383 kts 339°
2026-04-23 11:31 43.97496 5.05199 36264 ft 384 kts 339°
2026-04-23 11:32 44.02566 5.02848 36264 ft 384 kts 339°
2026-04-23 11:32 44.07639 5.00491 36266 ft 384 kts 339°
2026-04-23 11:33 44.12711 4.98125 36262 ft 385 kts 339°
2026-04-23 11:33 44.17795 4.95743 36251 ft 386 kts 339°
2026-04-23 11:34 44.22889 4.93353 36250 ft 386 kts 339°
2026-04-23 11:34 44.27986 4.90967 36259 ft 386 kts 339°
2026-04-23 11:35 44.33081 4.88576 36270 ft 387 kts 339°
2026-04-23 11:35 44.38184 4.86172 36261 ft 387 kts 339°
2026-04-23 11:36 44.43294 4.83759 36254 ft 388 kts 339°
2026-04-23 11:36 44.48411 4.81343 36254 ft 388 kts 339°
2026-04-23 11:37 44.53530 4.78922 36258 ft 389 kts 339°
2026-04-23 11:37 44.58821 4.77252 36244 ft 392 kts 348°
2026-04-23 11:38 44.64219 4.76070 36250 ft 393 kts 348°
2026-04-23 11:38 44.69627 4.74868 36246 ft 394 kts 348°
2026-04-23 11:39 44.75011 4.73662 36248 ft 395 kts 348°
2026-04-23 11:39 44.80439 4.72462 36254 ft 395 kts 348°
2026-04-23 11:40 44.85868 4.71255 36252 ft 395 kts 348°
2026-04-23 11:40 44.91300 4.70039 36269 ft 396 kts 348°
2026-04-23 11:41 44.96742 4.68817 36257 ft 397 kts 348°
2026-04-23 11:41 45.02203 4.67595 36244 ft 397 kts 348°
2026-04-23 11:42 45.07666 4.66373 36245 ft 398 kts 348°
2026-04-23 11:42 45.13135 4.65151 36249 ft 398 kts 348°
2026-04-23 11:43 45.18617 4.63918 36246 ft 399 kts 348°
2026-04-23 11:43 45.24103 4.62670 36222 ft 400 kts 348°
2026-04-23 11:44 45.29589 4.61410 36248 ft 399 kts 348°
2026-04-23 11:44 45.35077 4.60155 36244 ft 399 kts 348°
2026-04-23 11:45 45.40561 4.58898 36247 ft 400 kts 348°
2026-04-23 11:45 45.46049 4.57635 36241 ft 399 kts 348°
2026-04-23 11:46 45.51537 4.56364 36238 ft 400 kts 348°
2026-04-23 11:46 45.57034 4.55095 36230 ft 400 kts 348°
2026-04-23 11:47 45.62541 4.53831 36234 ft 401 kts 348°
2026-04-23 11:47 45.68056 4.52557 36234 ft 402 kts 348°
2026-04-23 11:48 45.73586 4.51271 36236 ft 403 kts 349°
2026-04-23 11:48 45.79101 4.49992 36241 ft 405 kts 349°
2026-04-23 11:49 45.84703 4.48688 36242 ft 406 kts 349°
2026-04-23 11:49 45.90240 4.47396 36245 ft 407 kts 349°
2026-04-23 11:50 45.95849 4.46083 36238 ft 410 kts 349°
2026-04-23 11:50 46.01489 4.44764 36237 ft 411 kts 349°
2026-04-23 11:51 46.07150 4.43442 36238 ft 413 kts 349°
2026-04-23 11:51 46.12829 4.42097 36236 ft 415 kts 350°
2026-04-23 11:52 46.18541 4.40746 36241 ft 417 kts 350°
2026-04-23 11:52 46.24272 4.39396 36244 ft 418 kts 350°
2026-04-23 11:53 46.29994 4.37983 36273 ft 417 kts 348°
2026-04-23 11:53 46.35650 4.36081 36259 ft 418 kts 345°
2026-04-23 11:54 46.41282 4.33963 36259 ft 419 kts 345°
2026-04-23 11:54 46.46935 4.31899 36260 ft 419 kts 346°
2026-04-23 11:55 46.52610 4.29896 36260 ft 421 kts 346°
2026-04-23 11:55 46.58312 4.27898 36258 ft 422 kts 346°
2026-04-23 11:56 46.64026 4.25888 36257 ft 423 kts 346°
2026-04-23 11:56 46.69744 4.23865 36260 ft 423 kts 346°
2026-04-23 11:57 46.75469 4.21836 36263 ft 423 kts 346°
2026-04-23 11:57 46.81156 4.19812 36265 ft 424 kts 346°
2026-04-23 11:58 46.86888 4.17769 36270 ft 424 kts 346°
2026-04-23 11:58 46.92622 4.15720 36267 ft 425 kts 346°
2026-04-23 11:59 46.98363 4.13657 36268 ft 425 kts 346°
2026-04-23 11:59 47.04116 4.11590 36268 ft 426 kts 346°
2026-04-23 12:00 47.08840 4.09404 36260 ft 426 kts 338°
2026-04-23 12:00 47.14336 4.06154 36272 ft 426 kts 338°
2026-04-23 12:01 47.19793 4.02924 36275 ft 426 kts 338°
2026-04-23 12:01 47.25294 3.99666 36276 ft 426 kts 338°
2026-04-23 12:02 47.30793 3.96399 36277 ft 426 kts 338°
2026-04-23 12:02 47.36297 3.93127 36272 ft 427 kts 339°
2026-04-23 12:03 47.41813 3.89844 36271 ft 427 kts 339°
2026-04-23 12:03 47.47334 3.86553 36269 ft 428 kts 339°
2026-04-23 12:04 47.52860 3.83239 36276 ft 429 kts 338°
2026-04-23 12:04 47.58401 3.79904 36262 ft 431 kts 340°
2026-04-23 12:05 47.63971 3.76559 36260 ft 433 kts 339°
2026-04-23 12:05 47.69557 3.73189 36265 ft 434 kts 339°
2026-04-23 12:06 47.75162 3.69795 36268 ft 435 kts 340°
2026-04-23 12:06 47.83572 3.64703 36268 ft 438 kts 339°
2026-04-23 12:07 47.89229 3.61264 36271 ft 440 kts 340°
2026-04-23 12:07 47.94900 3.57797 36282 ft 441 kts 338°
2026-04-23 12:08 48.00586 3.54322 36277 ft 443 kts 340°
2026-04-23 12:08 48.06297 3.50813 36278 ft 445 kts 339°
2026-04-23 12:09 48.12022 3.47287 36287 ft 446 kts 339°
2026-04-23 12:09 48.17762 3.43751 36287 ft 446 kts 339°
2026-04-23 12:10 48.23509 3.40188 36293 ft 447 kts 339°
2026-04-23 12:10 48.29249 3.36618 36316 ft 446 kts 339°
2026-04-23 12:11 48.34982 3.33050 36322 ft 446 kts 339°
2026-04-23 12:11 48.40710 3.29480 36314 ft 446 kts 339°
2026-04-23 12:12 48.46444 3.25865 36298 ft 448 kts 338°
2026-04-23 12:12 48.52186 3.22185 36310 ft 449 kts 339°
2026-04-23 12:13 48.57932 3.18482 36311 ft 450 kts 339°
2026-04-23 12:13 48.63694 3.14784 36305 ft 451 kts 339°
2026-04-23 12:14 48.69474 3.11076 36302 ft 452 kts 339°
2026-04-23 12:14 48.75271 3.07349 36315 ft 453 kts 339°
2026-04-23 12:15 48.81072 3.03598 36349 ft 453 kts 339°
2026-04-23 12:15 48.86732 2.99436 36356 ft 453 kts 331°
2026-04-23 12:16 48.92145 2.94702 36358 ft 452 kts 331°
2026-04-23 12:16 48.97589 2.89934 36353 ft 451 kts 332°
2026-04-23 12:17 49.03023 2.85160 36351 ft 450 kts 331°
2026-04-23 12:17 49.08455 2.80384 36339 ft 451 kts 331°
2026-04-23 12:18 49.13898 2.75590 36328 ft 452 kts 331°
2026-04-23 12:18 49.19346 2.70770 36337 ft 453 kts 331°
2026-04-23 12:19 49.24795 2.65939 36348 ft 453 kts 331°
2026-04-23 12:19 49.30244 2.61102 36356 ft 452 kts 331°
2026-04-23 12:20 49.35680 2.56264 36370 ft 452 kts 331°
2026-04-23 12:20 49.41113 2.51405 36372 ft 452 kts 331°
2026-04-23 12:21 49.46544 2.46524 36378 ft 451 kts 330°
2026-04-23 12:21 49.51887 2.41463 36363 ft 452 kts 323°
2026-04-23 12:22 49.56688 2.35173 36351 ft 454 kts 320°
2026-04-23 12:22 49.61483 2.28808 36359 ft 455 kts 320°
2026-04-23 12:23 49.66254 2.22472 36375 ft 455 kts 320°
2026-04-23 12:23 49.71075 2.16043 36392 ft 454 kts 320°
2026-04-23 12:24 49.75850 2.09651 36381 ft 454 kts 320°
2026-04-23 12:24 49.80593 2.03277 36388 ft 454 kts 320°
2026-04-23 12:25 49.85364 1.96853 36387 ft 454 kts 320°
2026-04-23 12:25 49.90136 1.90432 36392 ft 454 kts 320°
2026-04-23 12:26 49.94902 1.83989 36386 ft 454 kts 319°
2026-04-23 12:26 49.99664 1.77524 36379 ft 455 kts 319°
2026-04-23 12:27 50.04417 1.71050 36389 ft 454 kts 319°
2026-04-23 12:27 50.09165 1.64570 36405 ft 453 kts 319°
2026-04-23 12:28 50.13917 1.58129 36401 ft 453 kts 320°
2026-04-23 12:28 50.18678 1.51684 36390 ft 453 kts 319°
2026-04-23 12:29 50.23431 1.45214 36392 ft 453 kts 319°
2026-04-23 12:29 50.28111 1.38809 36396 ft 453 kts 319°
2026-04-23 12:30 50.32846 1.32318 36425 ft 451 kts 320°
2026-04-23 12:30 50.37559 1.25849 36432 ft 450 kts 319°
2026-04-23 12:31 50.42251 1.19376 36417 ft 449 kts 319°
2026-04-23 12:31 50.46942 1.12875 36402 ft 451 kts 319°
2026-04-23 12:32 50.51647 1.06356 36415 ft 451 kts 320°
2026-04-23 12:32 50.56501 1.00102 36413 ft 452 kts 323°
2026-04-23 12:33 50.61463 0.94125 36418 ft 452 kts 323°
2026-04-23 12:33 50.66429 0.88098 36423 ft 449 kts 323°
2026-04-23 12:34 50.71310 0.82015 36436 ft 445 kts 322°
2026-04-23 12:34 50.76170 0.75898 36437 ft 447 kts 322°
2026-04-23 12:35 50.81050 0.69774 36442 ft 449 kts 323°
2026-04-23 12:35 50.85929 0.63641 36448 ft 449 kts 322°
2026-04-23 12:36 50.90812 0.57481 36472 ft 449 kts 322°
2026-04-23 12:36 50.95703 0.51313 36471 ft 449 kts 323°
2026-04-23 12:37 51.00601 0.45128 36494 ft 450 kts 322°
2026-04-23 12:37 51.05462 0.38933 36535 ft 447 kts 322°
2026-04-23 12:38 51.10295 0.32763 36550 ft 444 kts 322°
2026-04-23 12:38 51.15107 0.26615 36533 ft 443 kts 322°
2026-04-23 12:39 51.19910 0.20482 36528 ft 442 kts 322°
2026-04-23 12:39 51.24693 0.14322 36508 ft 441 kts 322°
2026-04-23 12:40 51.29439 0.08113 36497 ft 441 kts 318°
2026-04-23 12:40 51.31514 0.04495 36474 ft 443 kts 307°
2026-04-23 12:40 51.33173 0.00350 36454 ft 444 kts 297°
2026-04-23 12:41 51.35191 -0.08963 36443 ft 445 kts 286°
2026-04-23 12:41 51.36785 -0.18518 36457 ft 444 kts 287°
2026-04-23 12:42 51.38378 -0.28057 36144 ft 444 kts 287°
2026-04-23 12:42 51.39170 -0.32806 35289 ft 438 kts 288°
2026-04-23 12:42 51.39968 -0.37548 33938 ft 443 kts 287°
2026-04-23 12:43 51.40763 -0.42299 32820 ft 439 kts 287°
2026-04-23 12:43 51.41533 -0.46984 31852 ft 432 kts 287°
2026-04-23 12:43 51.42291 -0.51622 31149 ft 427 kts 287°
2026-04-23 12:43 51.43032 -0.56173 30262 ft 419 kts 287°
2026-04-23 12:44 51.43760 -0.60655 29238 ft 413 kts 287°
2026-04-23 12:44 51.44479 -0.65074 28271 ft 407 kts 287°
2026-04-23 12:44 51.45180 -0.69384 27823 ft 393 kts 288°
2026-04-23 12:44 51.45865 -0.73604 27373 ft 389 kts 287°
2026-04-23 12:45 51.46542 -0.77785 26922 ft 386 kts 287°
2026-04-23 12:45 51.47211 -0.81934 26478 ft 383 kts 287°
2026-04-23 12:45 51.47875 -0.86060 26013 ft 381 kts 287°
2026-04-23 12:45 51.48528 -0.90105 25557 ft 379 kts 287°
2026-04-23 12:46 51.49186 -0.94187 25082 ft 377 kts 287°
2026-04-23 12:46 51.49840 -0.98261 24592 ft 376 kts 288°
2026-04-23 12:46 51.50487 -1.02314 24124 ft 374 kts 288°
2026-04-23 12:46 51.51128 -1.06361 23582 ft 373 kts 287°
2026-04-23 12:47 51.51761 -1.10389 23107 ft 370 kts 287°
2026-04-23 12:47 51.52390 -1.14384 22639 ft 368 kts 287°
2026-04-23 12:47 51.52993 -1.18361 22188 ft 366 kts 285°
2026-04-23 12:47 51.53512 -1.22341 21771 ft 363 kts 284°
2026-04-23 12:48 51.53976 -1.26315 21344 ft 361 kts 283°
2026-04-23 12:48 51.54274 -1.28991 21059 ft 360 kts 283°
2026-04-23 12:48 51.54709 -1.32934 20641 ft 357 kts 282°
2026-04-23 12:48 51.55139 -1.36802 20226 ft 356 kts 283°
2026-04-23 12:49 51.55587 -1.40762 19808 ft 355 kts 283°
2026-04-23 12:49 51.56031 -1.44606 19410 ft 354 kts 282°
2026-04-23 12:49 51.56487 -1.48490 18994 ft 354 kts 282°
2026-04-23 12:49 51.56944 -1.52367 18562 ft 353 kts 282°
2026-04-23 12:50 51.57399 -1.56241 18136 ft 352 kts 281°
2026-04-23 12:50 51.57848 -1.60099 17711 ft 350 kts 281°
2026-04-23 12:50 51.58293 -1.63938 17305 ft 349 kts 281°
2026-04-23 12:50 51.58699 -1.67771 16896 ft 348 kts 279°
2026-04-23 12:51 51.59015 -1.71626 16493 ft 347 kts 277°
2026-04-23 12:51 51.59279 -1.75483 16077 ft 347 kts 276°
2026-04-23 12:51 51.59525 -1.79339 15662 ft 347 kts 276°
2026-04-23 12:51 51.59775 -1.83190 15255 ft 346 kts 276°
2026-04-23 12:52 51.59823 -1.87047 14848 ft 345 kts 263°
2026-04-23 12:52 51.59304 -1.90796 14479 ft 341 kts 248°
2026-04-23 12:52 51.58278 -1.94151 14295 ft 330 kts 234°
2026-04-23 12:52 51.57052 -1.97238 13909 ft 325 kts 234°
2026-04-23 12:53 51.55841 -2.00278 13248 ft 320 kts 234°
2026-04-23 12:53 51.54651 -2.03258 12826 ft 315 kts 234°
2026-04-23 12:53 51.53470 -2.06211 12461 ft 313 kts 234°
2026-04-23 12:53 51.52445 -2.09279 12096 ft 312 kts 247°
2026-04-23 12:54 51.51709 -2.12542 11727 ft 310 kts 248°
2026-04-23 12:54 51.50978 -2.15796 11364 ft 310 kts 248°
2026-04-23 12:54 51.50244 -2.19036 10997 ft 308 kts 246°
2026-04-23 12:54 51.49511 -2.22249 10649 ft 306 kts 246°
2026-04-23 12:55 51.48778 -2.25454 10299 ft 305 kts 247°
2026-04-23 12:55 51.48055 -2.28630 9949 ft 302 kts 246°
2026-04-23 12:55 51.47335 -2.31795 9534 ft 301 kts 246°
2026-04-23 12:55 51.46620 -2.34936 9144 ft 299 kts 246°
2026-04-23 12:56 51.45906 -2.38063 8754 ft 298 kts 246°
2026-04-23 12:56 51.45196 -2.41173 8340 ft 297 kts 245°
2026-04-23 12:56 51.44488 -2.44269 7939 ft 295 kts 245°
2026-04-23 12:56 51.43781 -2.47348 7561 ft 293 kts 246°
2026-04-23 12:57 51.43079 -2.50400 7159 ft 292 kts 246°
2026-04-23 12:57 51.42379 -2.53440 6779 ft 290 kts 245°
2026-04-23 12:57 51.41697 -2.56411 6646 ft 278 kts 245°
2026-04-23 12:57 51.41045 -2.59258 6526 ft 266 kts 245°
2026-04-23 12:58 51.40420 -2.61974 6416 ft 254 kts 245°
2026-04-23 12:58 51.39821 -2.64559 6306 ft 243 kts 244°
2026-04-23 12:58 51.39238 -2.67065 6195 ft 239 kts 244°
2026-04-23 12:58 51.38659 -2.69555 6099 ft 238 kts 245°
2026-04-23 12:59 51.38339 -2.72170 5993 ft 244 kts 266°
2026-04-23 12:59 51.38615 -2.74876 5706 ft 248 kts 282°
2026-04-23 12:59 51.39059 -2.77544 5430 ft 247 kts 281°
2026-04-23 12:59 51.39491 -2.80201 5156 ft 247 kts 281°
2026-04-23 13:00 51.39917 -2.82858 4846 ft 246 kts 282°
2026-04-23 13:00 51.40338 -2.85508 4589 ft 245 kts 281°
2026-04-23 13:00 51.40756 -2.88151 4329 ft 245 kts 281°
2026-04-23 13:00 51.41175 -2.90794 4054 ft 244 kts 281°
2026-04-23 13:01 51.41589 -2.93417 3801 ft 242 kts 280°
2026-04-23 13:01 51.41621 -2.95996 3611 ft 223 kts 243°
2026-04-23 13:01 51.40760 -2.97818 3477 ft 195 kts 203°
2026-04-23 13:01 51.39542 -2.98390 3402 ft 178 kts 171°
2026-04-23 13:02 51.38389 -2.97853 3406 ft 172 kts 143°
2026-04-23 13:02 51.37587 -2.96479 3361 ft 170 kts 116°
2026-04-23 13:02 51.37350 -2.94635 3232 ft 170 kts 90°
2026-04-23 13:02 51.37429 -2.92815 3040 ft 158 kts 89°
2026-04-23 13:03 51.37500 -2.91119 2823 ft 147 kts 89°
2026-04-23 13:03 51.37564 -2.89555 2631 ft 135 kts 88°
2026-04-23 13:03 51.37623 -2.88094 2493 ft 129 kts 89°
2026-04-23 13:03 51.37681 -2.86668 2299 ft 126 kts 88°
2026-04-23 13:04 51.37738 -2.85245 2127 ft 129 kts 88°
2026-04-23 13:04 51.37794 -2.83835 1937 ft 125 kts 87°
2026-04-23 13:04 51.37849 -2.82448 1764 ft 128 kts 87°
2026-04-23 13:04 51.37905 -2.81051 1604 ft 125 kts 88°
2026-04-23 13:05 51.37961 -2.79654 1453 ft 126 kts 88°
2026-04-23 13:05 51.38016 -2.78259 1286 ft 127 kts 87°
2026-04-23 13:05 51.38072 -2.76844 1113 ft 125 kts 89°
2026-04-23 13:05 51.38127 -2.75451 939 ft 125 kts 89°
2026-04-23 13:06 51.38237 -2.72685 633 ft 114 kts 88°
2026-04-23 13:06 51.38270 -2.71840 622 ft 34 kts 86°
2026-04-23 13:06 51.38283 -2.71528 605 ft 13 kts 86°
2026-04-23 13:07 51.38335 -2.71468 611 ft 12 kts 332°
2026-04-23 13:07 51.38400 -2.71533 609 ft 9 kts 328°
2026-04-23 13:07 51.38412 -2.71545 618 ft 0 kts 330°
2026-04-23 13:07 51.38419 -2.71546 615 ft 7 kts 353°
2026-04-23 13:08 51.38511 -2.71542 612 ft 13 kts 355°
2026-04-23 13:08 51.38538 -2.71544 612 ft 2 kts 357°
2026-04-23 13:08 51.38542 -2.71544 615 ft 0 kts 357°